weather.gov     
National Weather Service

Terminal Aerodrome Forecast
NWS Homepage
This page is being discontinued on March 12, 2014.
The same data is available at this site. Please update your bookmarks.
Thank you, and we apologize for the inconvenience.
Please send an email to SR-SRH.Webmaster@noaa.gov with any concerns.


Current Version
Previous Version:    01  02  03  04  05  06  07  08  09  10  11  12  13  14  
[Printable]
495
FTUS41 KCAR 311331 AAA
TAFHUL
TAF AMD
KHUL 311331Z 3114/0112 35018G28KT 1/2SM SN BLSN SCT008 OVC010
     FM311900 35018G28KT 2SM -SN BLSN OVC015
     FM312200 34018G28KT 4SM -SN BLSN OVC025
     FM010300 32019G28KT 5SM BLSN SCT025=


495
FTUS41 KCAR 311331 AAA
TAFHUL
TAF AMD
KHUL 311331Z 3114/0112 35018G28KT 1/2SM SN BLSN SCT008 OVC010
     FM311900 35018G28KT 2SM -SN BLSN OVC015
     FM312200 34018G28KT 4SM -SN BLSN OVC025
     FM010300 32019G28KT 5SM BLSN SCT025=




U.S. Dept. of Commerce
NOAA National Weather Service
1325 East West Highway
Silver Spring, MD 20910
E-mail: w-nws.webmaster@noaa.gov
Page last modified: May 16, 2007
NATIONAL WEATHER SERVICE: for Safety, for Work, for Fun - FOR LIFE